Location: Killam
(52.7910°N, 111.8608°W)
Time: 13:19:11
(UTC+00:00)

Oscar 11 - Pass Details

Date: 15 March 2026
Orbit: 590 x 602 km, 97.8° (Epoch: 18 April)

Event Time Altitude Azimuth Distance (km) Brightness Sun altitude
Rises 09:36:56 0° 31° (NNE) 2,841 11.5 -33.5°
Reaches altitude 10° 09:40:39 10° 66° (ENE) 1,930 10.3 -33.1°
Maximum altitude 09:42:03 11° 85° (E) 1,833 9.9 -33.0°
Enters shadow 09:42:36 11° 94° (E) 1,847 9.8 -32.9°
